N0PB Weather Reports


time (UTC)temp
F
wind
direction
speed
knots
gust
knots
rain 1hr
in
rain 24hr
in
rain mn
in
humidity
%
barometer
mb
20260504204536 78 222 12.2 16.5 0.00 0.01 0.01 49 999.6
20260504203033 77 230 12.2 19.1 0.00 0.01 0.01 50 999.8
20260504201531 77 231 7.8 18.2 0.00 0.01 0.01 52 999.9
20260504200029 77 216 13.9 21.7 0.00 0.01 0.01 49 1000.1
20260504194527 77 222 12.2 20.0 0.00 0.01 0.01 52 1000.3
20260504193026 77 181 9.6 16.5 0.00 0.01 0.01 49 1000.3
20260504191525 76 219 9.6 15.6 0.00 0.01 0.01 49 1000.3
20260504190021 75 231 9.6 16.5 0.00 0.01 0.01 54 1000.5
20260504184526 76 222 11.3 18.2 0.00 0.01 0.01 52 1000.6
20260504183020 75 245 12.2 17.4 0.00 0.01 0.01 50 1000.6
20260504181516 75 220 8.7 16.5 0.00 0.01 0.01 50 1000.5
20260504180013 74 232 12.2 17.4 0.00 0.01 0.01 56 1000.7
20260504174511 74 222 11.3 18.2 0.00 0.01 0.01 53 1000.8
20260504173008 74 216 8.7 15.6 0.00 0.01 0.01 53 1001.1
20260504171505 73 232 13.0 21.7 0.00 0.01 0.01 53 1001.3
20260504081501 59 143 1.7 4.3 0.00 0.00 0.00 77 1004.5
20260504044533 59 283 0.0 0.0 0.00 0.00 0.00 79 1006.7
20260504043031 60 283 0.0 0.0 0.00 0.00 0.00 76 1006.8
20260504041534 60 283 0.0 0.0 0.00 0.00 0.00 77 1006.7
20260504040029 60 283 0.0 0.0 0.00 0.00 0.00 77 1006.8
20260504034529 61 283 0.0 1.7 0.00 0.00 0.00 73 1007.0
20260504033029 61 283 1.7 2.6 0.00 0.00 0.00 72 1007.2
20260504031528 61 283 0.0 1.7 0.00 0.00 0.00 73 1007.0
20260504030028 61 283 0.0 1.7 0.00 0.00 0.00 71 1007.1
20260504024528 63 283 0.0 0.0 0.00 0.00 0.00 66 1006.9
20260504023027 63 283 0.0 0.0 0.00 0.00 0.00 66 1006.9
20260504021526 64 283 0.0 0.0 0.00 0.00 0.00 59 1006.8
20260504020025 64 283 0.0 0.9 0.00 0.00 0.00 61 1006.8
20260504014528 65 283 0.0 0.0 0.00 0.00 0.00 63 1006.9
20260504013025 67 283 0.0 0.9 0.00 0.00 0.00 59 1006.8
20260504011524 70 283 0.0 1.7 0.00 0.00 0.00 50 1006.9
20260504010024 71 283 0.9 2.6 0.00 0.00 0.00 49 1006.8
20260504004524 71 283 0.9 2.6 0.00 0.00 0.00 49 1006.8
20260504003022 72 283 1.7 2.6 0.00 0.00 0.00 48 1006.9
20260504001522 73 283 3.5 7.0 0.00 0.00 0.00 47 1006.9
20260504000020 73 289 4.3 9.6 0.00 0.00 0.00 47 1007.0
20260503234519 74 286 4.3 7.0 0.00 0.00 0.00 47 1007.0
20260503233028 74 281 3.5 8.7 0.00 0.00 0.00 48 1007.2
20260503231519 73 289 3.5 8.7 0.00 0.00 0.00 47 1007.2
20260503230016 73 295 7.0 10.4 0.00 0.00 0.00 47 1007.3
20260503224515 74 278 9.6 13.0 0.00 0.00 0.00 46 1007.3
20260503223015 75 256 9.6 13.0 0.00 0.00 0.00 46 1007.2
20260503221521 74 278 9.6 13.9 0.00 0.00 0.00 46 1007.3
20260503220013 74 281 8.7 13.9 0.00 0.00 0.00 47 1007.4
20260503214511 74 242 12.2 19.1 0.00 0.00 0.00 44 1007.4
20260503213006 74 253 8.7 13.9 0.00 0.00 0.00 47 1007.4
20260503211503 74 242 9.6 16.5 0.00 0.00 0.00 46 1007.7
20260503210104 74 240 11.3 20.0 0.00 0.00 0.00 48 1007.9